Regional Weather Roundup
Issued by NWS Green Bay, WI

Home | Current Version | Previous Version | Graphics & Text | Print | Product List | Glossary Off
Versions: 1 2 3 4 5 6 7 8 9 10 11 12 13 14 15 16 17 18 19 20 21 22 23 24 25 26 27 28 29 30 31 32 33 34 35 36 37 38 39 40 41 42 43 44 45 46 47 48 49 50

000
ASUS43 KGRB 161711
RWRGRB

NORTH-CENTRAL AND NORTHEAST WISCONSIN REGIONAL WEATHER ROUNDUP
NATIONAL WEATHER SERVICE GREEN BAY WI
1200 PM CDT WED AUG 16 2017

WIZ005-009-010>012-018-019-161800-
NORTH CENTRAL WISCONSIN

CITY           SKY/WX    TMP DP  RH WIND       PRES   REMARKS
IRONWOOD       CLOUDY    74  58  57 E7        30.01F
MANITOWISH WTR MOSUNNY   70  61  73 SE9       30.03F
ARBOR VITAE    MOSUNNY   72  60  67 SE9       30.03F
EAGLE RIVER    MOSUNNY   71  56  60 SE7       30.04F
LAND O LAKES   MOSUNNY   72  56  56 SE6       30.05F
RHINELANDER    CLOUDY    71  59  65 VRB7      30.04F
PHILLIPS       CLOUDY    70  59  68 SE10      30.01F
ANTIGO         CLOUDY    69  58  69 SE9       30.05F
TOMAHAWK         N/A     69  58  68 CALM      30.03F
MERRILL        NOT AVBL
$$

WIZ013-073-161800-
NORTHEAST WISCONSIN

CITY           SKY/WX    TMP DP  RH WIND       PRES   REMARKS
IRON MOUNTAIN  SUNNY     68  55  63 VRB5      30.05F
MARINETTE      SUNNY     68  61  78 E10       30.05S
OCONTO         SUNNY     71  60  67 E8        30.03F
$$

WIZ017-030-035>037-045-161800-
CENTRAL WISCONSIN

CITY           SKY/WX    TMP DP  RH WIND       PRES   REMARKS
MEDFORD        MOSUNNY   70  60  70 E8        30.01S
WAUSAU         MOSUNNY   70  58  65 SE9       30.01F
MOSINEE        MOSUNNY   72  61  68 SE10      30.03F
MARSHFIELD     MOSUNNY   73  59  61 SE14      30.00S
WISC RAPIDS    MOSUNNY   76  60  57 E10       30.01F
STEVENS POINT  MOSUNNY   71  59  65 SE12      30.02F
WAUPACA        MOSUNNY   78  61  55 E9        30.02F
SHAWANO        CLOUDY    74  59  59 SE6       30.04S
CLINTONVILLE   MOSUNNY   72  59  64 SE8       30.03S
WAUTOMA        SUNNY     76  59  55 E9        30.01F
$$

WIZ038-039-048-051-161800-
FOX VALLEY

CITY           SKY/WX    TMP DP  RH WIND       PRES   REMARKS
NWS GREEN BAY  MOSUNNY   73  65  75 NE10      30.02F
APPLETON       MOSUNNY   73  55  53 VRB6      30.01
OSHKOSH        SUNNY     74  63  68 E8        30.01F
FOND DU LAC    PTSUNNY   77  58  51 VRB3      30.01S
$$

WIZ022-050-052-161800-
EAST CENTRAL WISCONSIN

CITY           SKY/WX    TMP DP  RH WIND       PRES   REMARKS
EPHRAIM        CLOUDY    66  63  87 N7        30.04F
WASHINGTON ISL PTSUNNY   68  62  82 NE8       30.03F
STURGEON BAY   SUNNY     71  62  73 NE5       30.04F
MANITOWOC      PTSUNNY   71  62  73 E6        30.04R
SHEBOYGAN      SUNNY     73  65  75 VRB6      30.03S
$$

LMZ563-521-522-541>543-161800-
LAKESHORE

STATION/POSITION TIME  TEMP    WIND        PRES    VSBY  WAVE
                       AIR SEA DIR/SP/G                  HT/PER
                 (UTC) (F)     (DEG/KT/KT) (MB)    (MI)  (FT/S)
SHEBOYGAN LKSHOR 1700   67      60/  5/  5 1016.5R
KEWAUNEE LKSHORE 1648   69      40/  5/  9 1016.4S
NORTHPORT PIER   1640   67      70/  9/ 10 1017.3F
N MID LAKE BUOY  1650   66 68  100/  6/  6 1017.9F         1
S GREEN BAY BUOY 1700   67 71   50/ 10/ 14 1016.7
SISTER BAY LKSHO 1703   75      80/ 10/ 14   N/A
MENOMINEE LKSHOR 1648   65      20/ 10/ 11 1017.0F
$$



USA.gov is the U.S. government's official web portal to all federal, state and local government web resources and services.